Weather History for PANC - February, 2014

Change the Weather History Date:

Wednesday, February 12, 2014

  Actual Average Record
Temperature  
Mean Temperature 8 °F 20 °F  
Max Temperature 13 °F 26 °F 42 °F (2006)
Min Temperature 3 °F 13 °F -26 °F (1956)
Degree Days  
Heating Degree Days 57    
Month to date heating degree days 578  
Since 1 July heating degree days 6033  
Cooling Degree Days 0    
Month to date cooling degree days 0  
Year to date cooling degree days 0  
Moisture  
Dew Point -5 °F    
Average Humidity 59    
Maximum Humidity 80    
Minimum Humidity 38    
Precipitation  
Precipitation 0.02 in 0.03 in 0.56 in (1955)
Month to date precipitation 0.03 0.33  
Year to date precipitation 1.40 1.06  
Snow  
Snow 0.30 in 0.40 in 6.80 in (1965)
Month to date snowfall 0.7 4.9  
Since 1 July snowfall 44.2 54.3  
Snow Depth 5.00 in    
Sea Level Pressure  
Sea Level Pressure 29.22 in    
Wind  
Wind Speed 7 mph (NNE)    
Max Wind Speed 13 mph    
Max Gust Speed -    
Visibility 8 miles    
Events Snow    
T = Trace of Precipitation, MM = Missing Value Source: NWS Daily Summary

Daily Weather History Graph

Daily Weather History Graph

Search for Another Location

Airport or City:

Trip Planner

Search our weather history database for the weather conditions in past years. The results will help you decide how hot, cold, wet, or windy it might be!

Date:

Astronomy

Feb. 12, 2014 Rise Set
Actual Time 8:50 AM AKST 5:39 PM AKST
Civil Twilight 8:03 AM AKST 6:25 PM AKST
Nautical Twilight 7:13 AM AKST 7:16 PM AKST
Astronomical Twilight 6:23 AM AKST 8:06 PM AKST
Moon 3:51 PM AKST (2/12) 7:27 AM AKST (2/12)
Length of Visible Light 10h 21m
Length of Day
8h 49m
Waxing Gibbous, 96% of the Moon is Illuminated
Feb 12
Waxing Gibbous
Feb 14
Full
Feb 22
Last Quarter
Feb 28
New
Mar 8
First Quarter

Hourly Weather History & Observations

Time (AKST) Temp. Windchill Dew Point Humidity Pressure Visibility Wind Dir Wind Speed Gust Speed Precip Events Conditions
12:53 AM 8.1 °F -0.5 °F -8.0 °F 48% 29.45 in 10.0 mi NNW 4.6 mph - N/A   Mostly Cloudy
1:53 AM 8.1 °F - -6.0 °F 53% 29.43 in 10.0 mi Calm Calm - N/A   Scattered Clouds
3:53 AM 8.1 °F -3.2 °F -4.0 °F 58% 29.39 in 10.0 mi North 6.9 mph - N/A   Overcast
4:53 AM 5.0 °F - -2.9 °F 70% 29.38 in 10.0 mi Calm Calm - N/A   Overcast
5:53 AM 8.1 °F -4.3 °F -8.0 °F 48% 29.35 in 10.0 mi NNW 8.1 mph - N/A   Mostly Cloudy
6:53 AM 7.0 °F -1.7 °F -6.0 °F 55% 29.34 in 10.0 mi North 4.6 mph - N/A   Overcast
7:53 AM 8.1 °F -6.2 °F -9.0 °F 46% 29.33 in 10.0 mi NNW 10.4 mph - N/A   Overcast
8:53 AM 7.0 °F -5.7 °F -5.1 °F 58% 29.31 in 10.0 mi North 8.1 mph - N/A   Mostly Cloudy
9:53 AM 9.0 °F -5.1 °F -9.9 °F 42% 29.31 in 10.0 mi North 10.4 mph - N/A   Mostly Cloudy
10:53 AM 10.0 °F -2.9 °F -8.0 °F 44% 29.31 in 10.0 mi North 9.2 mph - N/A   Mostly Cloudy
11:53 AM 10.0 °F -5.2 °F -8.0 °F 44% 29.28 in 10.0 mi North 12.7 mph - N/A   Mostly Cloudy
12:53 PM 10.0 °F -4.5 °F -4.0 °F 53% 29.26 in 10.0 mi ENE 11.5 mph - N/A   Mostly Cloudy
1:53 PM 12.0 °F -2.0 °F -9.0 °F 39% 29.21 in 10.0 mi NNE 11.5 mph - N/A   Mostly Cloudy
2:53 PM 12.9 °F -0.2 °F -8.0 °F 39% 29.19 in 10.0 mi NNW 10.4 mph - N/A   Mostly Cloudy
3:53 PM 12.0 °F -2.0 °F -9.9 °F 37% 29.18 in 10.0 mi North 11.5 mph - N/A   Mostly Cloudy
4:53 PM 12.0 °F 0.5 °F -9.0 °F 39% 29.15 in 10.0 mi North 8.1 mph - N/A   Mostly Cloudy
5:53 PM 10.9 °F 1.4 °F -9.0 °F 40% 29.13 in 10.0 mi North 5.8 mph - N/A   Overcast
6:53 PM 10.0 °F -4.5 °F 1.0 °F 67% 29.12 in 3.0 mi NE 11.5 mph - 0.00 in Snow Light Snow
7:53 PM 9.0 °F -3.2 °F 1.0 °F 70% 29.10 in 10.0 mi ENE 8.1 mph - 0.00 in Snow Light Snow
8:53 PM 8.1 °F -3.2 °F 1.9 °F 76% 29.08 in 5.0 mi ENE 6.9 mph - 0.00 in Snow Light Snow
9:12 PM 8.6 °F 0.1 °F 1.4 °F 73% 29.06 in 2.5 mi East 4.6 mph - 0.00 in Snow Light Snow
9:53 PM 7.0 °F -1.7 °F 1.9 °F 80% 29.07 in 2.0 mi NNE 4.6 mph - 0.01 in Snow Light Snow
10:05 PM 6.8 °F -2.0 °F 1.4 °F 79% 29.05 in 1.5 mi ENE 4.6 mph - 0.00 in Snow Light Snow
10:20 PM 6.8 °F -4.8 °F -0.4 °F 72% 29.05 in 1.0 mi NNE 6.9 mph - 0.00 in Snow Light Snow
10:34 PM 6.8 °F -4.8 °F -0.4 °F 72% 29.05 in 2.0 mi NNE 6.9 mph - 0.00 in Snow Light Snow
10:53 PM 7.0 °F -5.7 °F -2.0 °F 67% 29.06 in 3.0 mi North 8.1 mph - 0.00 in Snow Light Snow
11:53 PM 6.1 °F -5.6 °F -7.1 °F 55% 29.05 in 3.0 mi North 6.9 mph - 0.00 in Snow Light Snow